Regional Weather Roundup
Issued by NWS

Home | Current Version | Previous Version | Graphics & Text | Print | Product List | Glossary Off
Versions: 1 2 3 4 5 6 7 8 9 10 11 12 13 14 15 16 17 18 19 20 21 22 23 24 25 26 27 28 29 30 31 32 33 34 35 36 37 38 39 40 41 42 43 44 45 46 47 48 49 50

252
ASUS43 KMKX 271321
RWRWI

WISCONSIN REGIONAL WEATHER ROUNDUP
NATIONAL WEATHER SERVICE MILWAUKEE/SULLIVAN WI
700 AM CST MON FEB 27 2017

NOTE: "FAIR" INDICATES FEW OR NO CLOUDS BELOW 12,000 FEET WITH NO
SIGNIFICANT WEATHER AND/OR OBSTRUCTIONS TO VISIBILITY.

WIZ001-002-006>008-014>016-023>028-271400-
NORTHWEST WISCONSIN

CITY           SKY/WX    TMP DP  RH WIND       PRES   REMARKS
SUPERIOR ARPT  CLOUDY    18  10  71 CALM      29.98S
ASHLAND        CLOUDY    18  12  77 CALM      29.99F
HAYWARD        CLOUDY    22  16  78 SE3       29.96R
SIREN          CLOUDY    22  21  94 CALM      29.96S
CUMBERLAND     CLOUDY    25  19  80 S5        29.95R WCI  19
RICE LAKE      CLOUDY    24  20  83 SE5       29.98R WCI  19
CHETEK         CLOUDY    22  19  88 SE3       29.97R
LADYSMITH      MOCLDY    21  16  79 E3        29.98S
EAU CLAIRE     CLEAR     22  19  89 S9        29.99S WCI  12
MENOMONIE      CLEAR     19  18  96 E5        30.00R FOG     WCI  12
NEW RICHMOND   CLEAR     23  19  85 S9        29.96R WCI  13
OSCEOLA        CLEAR     23  20  90 S3        29.99R
$$

WIZ003>005-009-010-017-018-271400-
NORTH CENTRAL WISCONSIN

CITY           SKY/WX    TMP DP  RH WIND       PRES   REMARKS
MANITOWISH WTR LGT SNOW  14  13  95 SE5       29.96F WCI   6
ARBOR VITAE    FLURRIES  17  12  82 CALM        N/A
WOODRUFF       FLURRIES  17  12  82 CALM        N/A
RHINELANDER    CLOUDY     1  32 100 CALM      29.98S
EAGLE RIVER    FLURRIES  14   8  76 CALM      29.98S
LAND O LAKES   LGT SNOW   8   5  87 CALM      30.00R
PHILLIPS       CLOUDY    17  13  84 CALM      29.96S
TOMAHAWK       CLOUDY    19  13  79 CALM      29.99S
MEDFORD        CLOUDY    20  18  92 S8        29.98S WCI  11
MERRILL        NOT AVBL
$$

WIZ029-030-035-036-043>047-271400-
CENTRAL WISCONSIN

CITY           SKY/WX    TMP DP  RH WIND       PRES   REMARKS
WAUSAU         CLOUDY    23  20  88 SE5       30.02R WCI  17
MOSINEE        MOCLDY    21  21 100 SE7       30.04R FOG     WCI  13
MARSHFIELD     MOCLDY    19  17  92 S9        30.01R FOG     WCI   8
STEVENS POINT  CLOUDY    22  21  94 CALM      30.06R
WAUPACA        CLEAR     20  17  90 CALM      30.08S FOG
WAUTOMA        CLEAR     14  11  87 CALM      30.09R
WISC RAPIDS    CLEAR     21  20  96 S3        30.06R
CAMP DOUGLAS   CLEAR     14  10  85 SE6       30.06R WCI   5
$$

WIZ011>013-019>022-031-037>040-048>050-271400-
NORTHEAST WISCONSIN

CITY           SKY/WX    TMP DP  RH WIND       PRES   REMARKS
ANTIGO         CLOUDY    19  12  76 SE12      30.02S WCI   6
SHAWANO        PTCLDY    24  14  67 CALM      30.09S
OCONTO         MOCLDY    16  13  88 CALM      30.10S
STURGEON BAY   CLEAR     19  13  77 E3        30.11R
GREEN BAY      CLOUDY    22  18  85 E3        30.11R
MANITOWOC      PTCLDY    18  16  92 CALM      30.12R
APPLETON       PTCLDY    21  19  93 VRB3      30.07R
CLINTONVILLE   MOCLDY    23  18  80 SE3       30.08S
OSHKOSH        CLEAR     24  20  84 S8        30.09R WCI  15
$$

WIZ032>034-041-042-053>061-271400-
SOUTHWEST WISCONSIN

CITY           SKY/WX    TMP DP  RH WIND       PRES   REMARKS
LA CROSSE      CLEAR     24  21  88 SE3       30.05S
SPARTA         CLEAR     13  12  95 CALM      30.06S
VIROQUA        CLEAR     22  21  94 SE6       30.04R WCI  15
BOSCOBEL       PTCLDY    19  16  88 CALM      30.09S FOG
PRAIRIE DU CHI CLEAR     23  21  93 CALM      30.08S
PLATTEVILLE    CLEAR     26  25  97 E7        30.08R WCI  18
$$

WIZ056-057-062-063-064-067-068-271400-
SOUTH CENTRAL WISCONSIN

CITY           SKY/WX    TMP DP  RH WIND       PRES   REMARKS
REEDSBURG      CLEAR     22  22  99 CALM      30.07S
BARABOO/DELLS  CLEAR     24  21  90 S5        30.07S WCI  18
LONE ROCK      PTCLDY    22  19  89 E3        30.10R FOG
MINERAL POINT  CLEAR     27  27 100 SE6       30.07R WCI  20
MADISON        PTCLDY    23  19  85 CALM      30.09R
MIDDLETON      CLEAR     24  22  95 CALM      30.10R
WATERTOWN      CLEAR     22  22 100 CALM      30.10S
MONROE         CLEAR     28  23  80 SE7       30.08S WCI  21
JANESVILLE     PTCLDY    25  25 100 CALM      30.11R
$$

WIZ051-052-058>065-066-070>072-271400-
SOUTHEAST WISCONSIN

CITY           SKY/WX    TMP DP  RH WIND       PRES   REMARKS
MILWAUKEE      PTCLDY    24  20  84 CALM      30.13R
WAUKESHA       CLEAR     21  19  93 CALM      30.12R
MILWAUKEE/TIMM CLEAR     23  19  86 CALM      30.13R
RACINE         CLEAR     25  22  88 CALM      30.14R
KENOSHA        CLEAR     27  24  89 CALM      30.13R
FOND DU LAC    CLEAR     24  19  81 S3        30.10R
SHEBOYGAN      PTCLDY    22  18  85 S6        30.11R WCI  14
WEST BEND      CLEAR     23  23 100 S3        30.10R
JUNEAU         CLEAR     24  22  91 SE7       30.11R WCI  16
$$

LSZ147-162-271400-
LAKE SUPERIOR

STATION/POSITION TIME  TEMP    WIND        PRES    WAVE
                       AIR SEA DIR/SP/G            HT/PER
                 (UTC) (F)     (DEG/KT/KT) (MB)    (FT/S)
DEVILS ISLAND    1300   24     160/  3/  4 1017.0R
PORT WING        1240   19     120/  2/  5 1015.2F
SAXON HARBOR     1140   18     180/  4/  6 1015.9S
$$

LMZ867-665-643>646-271400-
LAKE MICHIGAN

STATION/POSITION TIME  TEMP    WIND        PRES    WAVE
                       AIR SEA DIR/SP/G            HT/PER
                 (UTC) (F)     (DEG/KT/KT) (MB)    (FT/S)
CHAMBERS ISLAND  1240   19     150/  1/  2 1019.0R
NORTHPORT PIER   1304   18        CALM     1019.6
SISTER BAY       1235   17        CALM       N/A
KEWAUNEE LAKESHO 1254   30     110/  2/  6 1019.3R
SHEBOYGAN LAKESH 1300   29     210/  5/  5 1020.5R
PORT WASHINGTON  1240   26     260/  3/  4 1021.0R
MILWAUKEE LAKESH 1300   33     240/  2/  2   N/A
KENOSHA   LAKESH 1300   31        CALM     1020.3
$$

TC  - TEMPERATURE IN CELSIUS
VSB - VISIBILITY IN STATUTE MILES
WCI - WIND CHILL INDEX
HX  - HEAT INDEX





USA.gov is the U.S. government's official web portal to all federal, state and local government web resources and services.